This is the latest recevied weather packets stored in our database for station/object DM1HF-13. If no packets are shown the sender has not sent any weather packets the latest 1 day(s).
| Time | Temp. | Humidity | Pressure | Rain* | Wind** | Luminosity | Snow |
|---|---|---|---|---|---|---|---|
| 1778065217 | 18.33° C | 68% | 1007.3 hPa | 0 mm | - | 163 W/m² | - |
| 1778064917 | 18.33° C | 66% | 1007.1 hPa | 0 mm | - | 162 W/m² | - |
| 1778064317 | 18.33° C | 70% | 1007.3 hPa | 0 mm | - | 877 W/m² | - |
| 1778064017 | 17.78° C | 72% | 1007.4 hPa | 0 mm | - | 966 W/m² | - |
| 1778063717 | 17.78° C | 71% | 1007.4 hPa | 0 mm | - | 189 W/m² | - |
| 1778063417 | 17.78° C | 70% | 1007.5 hPa | 0 mm | - | 102 W/m² | - |
| 1778063117 | 17.78° C | 69% | 1007.4 hPa | 0 mm | - | 103 W/m² | - |
| 1778062817 | 17.78° C | 71% | 1007.3 hPa | 0 mm | - | 124 W/m² | - |
| 1778062517 | 17.78° C | 72% | 1007.3 hPa | 0 mm | - | 743 W/m² | - |
| 1778062217 | 17.78° C | 70% | 1007.3 hPa | 0 mm | - | 775 W/m² | - |
| 1778061917 | 18.33° C | 70% | 1007.2 hPa | 0 mm | - | 130 W/m² | - |
| 1778061617 | 17.78° C | 74% | 1007.3 hPa | 0 mm | - | 665 W/m² | - |
| 1778061317 | 17.22° C | 75% | 1007.1 hPa | 0 mm | - | 327 W/m² | - |
| 1778061017 | 16.67° C | 76% | 1007.2 hPa | 0 mm | - | 664 W/m² | - |
| 1778060717 | 16.11° C | 79% | 1007.1 hPa | 0 mm | - | 585 W/m² | - |
| 1778060417 | 15.56° C | 80% | 1007 hPa | 0 mm | - | 682 W/m² | - |
| 1778060117 | 15.56° C | 79% | 1007.1 hPa | 0 mm | - | 315 W/m² | - |
| 1778059817 | 15.56° C | 82% | 1007.1 hPa | 0 mm | - | 90 W/m² | - |
| 1778059517 | 15.56° C | 81% | 1007.1 hPa | 0 mm | - | 49 W/m² | - |
| 1778059217 | 15.56° C | 83% | 1007.1 hPa | 0 mm | - | 55 W/m² | - |
| 1778058917 | 15.56° C | 82% | 1007 hPa | 0 mm | - | 124 W/m² | - |
| 1778058617 | 15.56° C | 83% | 1007 hPa | 0 mm | - | 195 W/m² | - |
| 1778058317 | 15.56° C | 82% | 1007 hPa | 0 mm | - | 129 W/m² | - |
| 1778058017 | 15° C | 82% | 1006.9 hPa | 0 mm | - | 53 W/m² | - |
| 1778057717 | 15.56° C | 81% | 1006.9 hPa | 0 mm | - | 80 W/m² | - |
* Rain latest hour (hover to see other rain measurements)
** Current wind speed in m/s (hover to see current wind gust speed)